sat.trackr.live / text

‹ back to catalog

DRAGRACER 2 (AUGURY)

NORAD 46955 · 2020-085AC

PAYLOAD ACTIVE UNKNOWN

§ Identity

Operator
Country
US
Launch date
2020-11-20
Launch site
RLLB
Launch vehicle
Mass (kg)
RCS (m²)

External: N2YO · Heavens-Above · Gunter

§ Orbital elements

Epoch: 2026-09-12T01:05:10.156416Z

Period
91.26 min
Inclination
97.5700°
Eccentricity
0.0002415
Mean motion
15.77836758 rev/d
Perigee alt
334.9 km
Apogee alt
338.2 km
Semi-major
6,714.7 km
B*
2.7978e-4
RAAN
99.0192°
Arg perigee
305.4691°
Mean anomaly
54.6350°
Rev number
32,553

§ Raw data

DRAGRACER 2 (AUGURY)1 46955U 20085AC  26255.04525644  .00046985  00000+0  27978-3 0  99912 46955  97.5700  99.0192 0002415 305.4691  54.6350 15.77836758325537

JSON: /api/v1/satellites/46955 · /tle

For live sub-satellite position, see the globe view (requires WebGL).

§ Visibility from observer

Set your observer location to see the next 7 days of passes ≥ 10°. The values pass through the URL so the page stays shareable.

No JS? Fill the form by hand. The geolocation button needs JavaScript.